Wind_Speed
9 11 11 12 11 15 15 14 16 11 12 14 14 9 15 15 14 15 15 16 16 17 17 19 21 24 25 27 29 29 26 24 23 22 22 23 23 23 23 23 23 23 23
8 7 8 9 9 10 13 12 13 12 11 11 12 12 12 13 15 14 15 17 18 18 20 22 24 25 27 27 27 24 22 22 21 21 21 22 22 23 24 23 24 23 23
7 5 7 7 7 7 9 12 12 9 9 10 12 13 12 11 14 13 13 15 18 21 23 24 24 25 24 24 22 21 22 20 19 20 21 21 22 25 24 23 24 25 26
5 5 4 5 6 6 7 8 10 10 10 9 10 11 14 12 11 13 13 13 14 18 20 19 20 21 20 19 17 18 20 20 21 22 23 23 23 23 22 24 25 29 30
6 5 1 6 5 6 4 7 9 9 10 10 10 9 11 13 12 13 16 16 18 19 19 18 19 18 18 19 19 21 23 24 24 24 25 26 25 26 27 27 27 27 27
6 4 5 7 6 6 4 7 8 9 10 11 11 10 11 12 12 15 18 21 22 22 21 21 21 18 18 20 22 23 25 26 26 26 27 27 27 25 24 24 25 26 27
5 7 6 8 8 5 7 10 9 10 11 11 11 10 11 11 12 12 14 18 18 20 19 18 20 20 19 20 23 25 24 26 26 26 26 25 22 22 21 22 23 27 30
12 11 10 9 9 7 8 8 10 9 11 11 9 12 11 10 12 11 12 15 17 17 18 18 19 20 21 24 22 22 22 24 24 23 22 21 22 22 22 24 27 31 34
14 13 12 11 9 9 9 8 9 8 9 10 7 9 11 10 12 10 10 16 14 17 14 17 18 19 20 22 21 20 21 21 22 21 20 20 20 21 23 27 31 33 35
15 15 12 11 11 10 9 8 8 6 8 7 8 6 12 10 10 11 12 12 13 17 13 17 17 17 18 20 21 20 19 19 19 18 19 19 21 23 25 28 30 31 33
14 14 12 10 9 9 8 7 6 6 5 3 7 7 9 9 7 9 10 10 11 13 14 16 16 17 16 18 18 17 16 15 15 15 18 19 20 22 26 28 29 31 34
14 13 10 8 5 6 5 5 4 4 3 3 6 8 8 9 10 9 7 7 13 10 12 13 16 16 16 15 14 13 13 13 14 16 16 17 19 23 27 29 29 31 32
11 10 8 5 3 3 4 4 4 3 3 2 4 7 9 9 8 10 7 10 12 12 13 16 17 16 14 12 10 11 11 11 14 16 15 16 20 25 27 29 30 32 34
11 10 7 5 2 1 2 4 5 5 3 2 3 6 7 9 8 7 8 10 9 12 12 13 14 13 10 9 9 10 10 12 13 12 14 19 23 25 29 30 31 33 36
13 10 8 6 3 1 2 6 6 6 5 3 1 3 4 6 8 8 7 9 9 10 11 10 9 8 7 7 7 8 10 11 13 15 16 20 23 27 30 30 31 34 36
15 12 10 8 7 5 4 4 5 4 3 4 1 0 2 4 5 6 6 7 7 7 8 8 7 6 4 4 5 5 5 8 10 12 15 19 22 24 26 28 31 34 36
17 15 13 11 9 8 8 5 4 2 1 1 0 1 3 3 4 4 5 7 7 7 6 6 5 3 2 2 2 4 5 8 11 14 17 19 21 22 23 26 29 32 34
20 20 17 16 14 12 11 7 5 3 2 3 3 3 5 6 5 6 6 6 6 6 5 5 4 2 1 1 3 6 8 10 12 14 16 18 20 22 23 27 29 32 36
21 22 21 18 16 14 12 10 9 7 5 6 7 7 7 8 10 9 9 10 9 7 5 4 2 2 3 4 4 5 7 10 12 13 17 21 24 26 29 28 30 33 36
22 22 22 21 19 18 15 13 12 10 10 9 10 10 10 10 12 13 12 12 12 11 10 8 6 5 6 6 7 6 9 10 12 16 21 25 26 27 28 29 31 33 34
24 23 23 22 21 19 18 17 15 13 12 12 12 12 12 13 12 14 15 15 15 13 12 12 11 10 9 9 7 8 9 10 14 18 19 25 27 28 29 30 31 31 33
27 25 23 22 21 20 20 20 18 15 13 13 12 12 13 14 15 15 17 17 17 17 16 15 14 14 12 11 9 10 11 14 16 23 19 25 27 28 27 28 30 31 33
30 28 25 23 21 22 21 20 21 18 15 13 13 13 15 16 17 17 18 21 19 18 18 18 17 16 14 13 12 15 15 16 19 23 24 25 26 27 26 29 30 33 35
29 30 29 27 25 24 24 23 22 21 18 15 15 15 17 18 19 20 20 21 22 21 20 19 18 17 12 14 17 18 18 18 20 24 25 24 25 26 29 31 32 33 35
29 28 30 30 28 27 27 26 25 23 21 18 17 18 18 19 20 21 20 20 24 25 24 21 18 16 16 18 19 19 20 21 20 23 29 23 24 23 27 29 31 32 34
28 32 31 31 31 31 31 29 27 26 24 21 20 21 21 21 22 20 19 21 24 28 26 22 19 17 17 18 18 18 22 26 30 29 31 24 26 24 24 27 30 31 32
Wind_Direction
98 94 86 92 87 100 106 104 94 92 75 72 84 75 81 85 84 80 80 81 76 70 69 76 81 84 83 80 80 74 71 70 64 58 55 52 44 38 35 30 25 22 19
110 84 113 61 94 95 94 94 97 85 79 74 78 85 77 78 82 78 80 81 79 74 76 80 83 82 78 75 75 72 69 67 64 58 48 43 40 37 34 30 31 31 29
124 130 113 113 97 89 97 88 82 84 75 71 81 93 93 86 82 76 76 85 91 89 87 83 80 79 77 72 70 67 67 64 56 53 49 44 44 43 39 37 38 39 40
138 159 116 124 123 122 105 108 96 89 71 79 90 99 99 96 88 79 73 81 93 97 94 90 88 86 80 76 74 71 68 62 55 53 53 49 44 43 44 45 43 42 35
171 158 92 131 139 133 112 89 74 70 81 88 99 107 100 102 99 92 85 80 84 83 81 81 82 83 85 82 76 70 64 60 58 53 51 53 58 59 54 44 37 35 27
169 163 131 126 123 110 112 90 83 87 80 85 102 112 104 101 95 92 95 90 83 82 78 76 78 82 78 74 70 66 68 64 54 57 59 60 60 55 47 38 30 26 21
158 122 132 131 115 124 112 95 92 89 91 93 91 106 105 108 99 111 96 90 87 82 81 79 78 81 77 74 73 75 69 60 62 61 61 62 56 46 35 22 17 15 14
138 134 131 129 121 116 107 98 99 95 99 95 100 108 115 112 115 110 108 98 85 84 77 80 80 79 81 84 81 75 68 69 61 61 60 52 47 40 29 20 17 15 13
130 126 124 124 120 108 98 94 89 94 87 81 77 95 106 114 114 117 122 101 97 83 81 79 76 77 82 88 82 73 70 66 65 58 49 41 35 32 23 16 14 13 12
128 125 124 112 104 99 97 88 89 85 78 71 77 89 100 108 122 114 103 92 81 85 78 83 83 83 82 81 81 78 72 68 63 54 44 39 29 21 18 15 15 13 10
128 123 120 109 105 102 92 89 85 71 58 69 94 95 105 107 97 102 98 95 83 84 78 75 87 93 89 82 79 73 67 63 57 50 38 31 24 16 14 16 16 11 11
135 131 125 117 88 70 77 81 83 94 105 87 90 98 94 97 99 93 82 76 72 75 81 82 93 93 91 89 77 72 66 52 43 37 35 29 17 14 19 16 12 11 9
158 153 145 135 111 52 42 67 85 91 107 117 99 95 94 99 92 102 90 69 74 74 84 92 99 95 90 84 76 73 62 39 31 28 28 15 14 18 17 12 8 6 6
176 172 175 179 168 62 65 73 79 80 103 139 104 101 92 98 92 82 86 81 80 90 93 97 97 91 84 80 71 56 42 27 29 22 18 13 12 13 14 9 4 3 2
195 200 191 200 212 251 132 119 105 91 82 112 92 94 110 103 109 90 80 89 92 96 107 112 99 89 89 92 83 48 32 28 22 16 8 5 6 5 7 0 0 0 359
215 209 213 207 211 209 182 146 130 110 83 73 72 134 145 133 124 124 112 106 100 104 112 116 108 104 124 100 56 44 32 27 18 5 2 6 2 359 357 355 358 357 357
220 218 217 223 216 210 203 192 165 131 94 53 10 259 211 197 159 160 147 138 136 141 136 128 124 138 138 115 96 39 20 7 6 3 3 356 356 355 350 350 354 355 355
219 231 223 222 225 216 218 221 224 207 254 265 269 259 240 216 210 193 193 181 165 153 148 153 148 149 77 42 354 357 359 351 350 353 352 350 352 350 347 353 353 356 355
230 225 234 231 237 236 225 226 251 268 269 266 259 262 252 233 219 210 203 204 205 200 184 173 169 217 260 279 317 323 326 327 333 342 344 347 349 350 348 344 349 355 353
229 235 236 240 234 237 240 235 245 263 281 281 261 253 255 252 235 221 214 213 216 220 218 213 224 233 249 271 283 297 304 311 316 334 345 344 342 340 337 344 350 348 346
226 229 235 238 241 241 242 244 244 259 275 285 278 257 247 250 247 236 229 220 219 225 224 231 244 247 248 252 260 278 297 307 321 318 336 331 334 330 332 337 341 341 343
231 230 233 236 237 237 237 242 244 252 268 283 278 261 250 246 246 241 235 233 229 229 230 236 245 248 257 265 275 280 284 293 297 306 320 321 327 326 326 327 332 340 342
233 234 234 235 235 236 236 236 241 245 256 266 264 254 249 249 249 246 236 233 230 231 234 238 241 246 255 266 273 277 287 297 301 302 313 319 323 323 320 324 331 337 342
230 234 236 235 234 238 239 237 238 241 245 254 253 241 242 243 244 247 241 234 230 232 238 236 243 257 266 271 277 281 287 304 315 313 303 312 315 319 320 323 329 335 336
230 230 234 236 236 239 242 242 239 240 244 249 249 240 244 248 246 249 249 242 232 230 233 237 240 250 262 267 273 283 300 302 301 304 301 308 308 314 315 319 325 328 332
227 231 231 235 236 237 241 244 243 240 243 245 250 245 243 243 248 251 246 243 233 228 233 234 239 249 256 260 273 290 295 295 299 301 301 308 309 310 314 316 320 327 332
Height
5941 5942 5942 5938 5939 5940 5941 5941 5940 5940 5940 5941 5942 5941 5941 5942 5942 5942 5943 5943 5942 5942 5942 5942 5942 5942 5941 5941 5942 5942 5941 5941 5941 5941 5941 5939 5938 5936 5934 5932 5930 5928 5926
5943 5943 5943 5941 5943 5942 5943 5944 5945 5945 5944 5945 5945 5944 5944 5945 5945 5945 5945 5945 5945 5946 5946 5945 5945 5945 5945 5945 5946 5945 5945 5945 5945 5944 5943 5941 5940 5938 5935 5933 5931 5929 5926
5944 5945 5945 5946 5945 5945 5946 5945 5946 5947 5948 5947 5947 5948 5948 5948 5949 5948 5948 5947 5947 5948 5948 5948 5948 5949 5949 5949 5949 5949 5949 5949 5948 5947 5945 5943 5941 5939 5937 5935 5933 5930 5927
5944 5946 5945 5946 5948 5948 5949 5950 5950 5950 5950 5951 5950 5951 5951 5951 5951 5951 5951 5950 5950 5949 5949 5950 5950 5951 5952 5953 5952 5952 5952 5951 5950 5948 5947 5945 5943 5940 5939 5937 5935 5932 5929
5946 5946 5947 5948 5949 5949 5949 5949 5950 5951 5952 5953 5953 5954 5953 5954 5954 5954 5954 5953 5953 5953 5953 5953 5954 5955 5955 5955 5955 5955 5954 5953 5952 5951 5949 5948 5945 5944 5942 5940 5937 5935 5932
5946 5949 5949 5950 5951 5950 5952 5952 5953 5953 5954 5955 5956 5956 5957 5957 5957 5957 5957 5957 5957 5957 5957 5956 5957 5957 5958 5958 5958 5957 5957 5956 5954 5953 5952 5951 5949 5947 5945 5943 5940 5938 5935
5948 5950 5950 5952 5953 5954 5955 5955 5955 5956 5957 5958 5958 5960 5960 5960 5960 5960 5960 5960 5960 5960 5960 5960 5960 5960 5960 5961 5960 5959 5959 5958 5958 5957 5956 5955 5953 5951 5948 5945 5942 5938 5935
5951 5952 5953 5955 5956 5957 5957 5958 5958 5959 5959 5960 5961 5961 5961 5962 5962 5963 5963 5962 5963 5963 5964 5964 5963 5963 5963 5963 5963 5962 5962 5961 5960 5960 5959 5958 5956 5953 5950 5947 5943 5939 5935
5952 5953 5955 5957 5959 5958 5959 5960 5960 5960 5961 5961 5962 5963 5963 5963 5964 5965 5966 5965 5965 5964 5967 5966 5966 5966 5966 5965 5966 5966 5965 5964 5963 5963 5962 5960 5958 5955 5952 5948 5944 5939 5934
5953 5955 5957 5958 5959 5960 5961 5961 5962 5962 5962 5962 5963 5964 5964 5966 5966 5966 5966 5967 5966 5966 5968 5968 5969 5969 5968 5967 5968 5969 5968 5968 5967 5966 5964 5962 5960 5957 5953 5949 5945 5939 5934
5955 5956 5959 5960 5962 5963 5963 5963 5964 5963 5963 5964 5964 5966 5967 5968 5968 5968 5968 5968 5968 5967 5968 5968 5970 5972 5971 5971 5971 5971 5971 5970 5969 5968 5966 5964 5961 5957 5953 5949 5946 5941 5936
5958 5959 5960 5961 5962 5962 5964 5964 5965 5965 5965 5965 5965 5967 5968 5969 5970 5971 5971 5971 5969 5969 5970 5969 5971 5974 5973 5973 5974 5974 5972 5972 5971 5969 5967 5965 5962 5958 5954 5950 5946 5941 5936
5960 5960 5962 5963 5963 5964 5964 5965 5965 5966 5966 5966 5966 5967 5968 5970 5971 5971 5973 5973 5972 5972 5972 5972 5973 5975 5975 5975 5975 5975 5973 5973 5971 5970 5968 5966 5962 5959 5955 5951 5946 5942 5937
5960 5960 5962 5964 5965 5965 5965 5966 5966 5966 5967 5967 5968 5968 5969 5971 5972 5973 5973 5974 5975 5974 5975 5975 5975 5976 5975 5976 5976 5975 5974 5973 5972 5970 5968 5965 5962 5959 5955 5951 5947 5942 5936
5960 5961 5962 5964 5965 5965 5966 5967 5968 5968 5968 5968 5969 5969 5970 5971 5972 5973 5974 5974 5976 5976 5976 5977 5977 5977 5977 5977 5977 5976 5974 5974 5972 5970 5968 5965 5962 5958 5954 5951 5946 5940 5935
5958 5960 5962 5964 5965 5966 5967 5967 5969 5968 5969 5969 5969 5970 5971 5972 5972 5973 5974 5975 5977 5978 5978 5979 5979 5979 5979 5978 5977 5976 5976 5974 5973 5972 5969 5966 5963 5959 5955 5950 5945 5940 5935
5957 5960 5962 5963 5965 5966 5967 5968 5969 5969 5969 5970 5970 5970 5971 5972 5972 5974 5975 5976 5977 5978 5980 5980 5980 5979 5979 5978 5978 5977 5976 5975 5973 5971 5969 5966 5963 5959 5955 5950 5945 5940 5935
5955 5956 5959 5962 5963 5965 5966 5967 5968 5970 5970 5970 5970 5970 5970 5971 5972 5973 5974 5976 5977 5977 5978 5979 5979 5979 5979 5978 5978 5977 5976 5975 5973 5971 5970 5967 5963 5959 5953 5948 5944 5939 5932
5950 5954 5956 5958 5960 5962 5965 5966 5967 5968 5969 5969 5969 5969 5969 5970 5971 5973 5974 5975 5977 5977 5978 5978 5979 5979 5979 5979 5978 5977 5977 5975 5973 5972 5969 5965 5961 5955 5950 5947 5942 5936 5930
5945 5948 5952 5955 5957 5959 5961 5964 5966 5966 5966 5967 5967 5967 5967 5968 5969 5971 5972 5974 5975 5976 5977 5977 5977 5978 5978 5978 5978 5977 5976 5975 5973 5970 5966 5962 5959 5955 5950 5945 5940 5934 5929
5940 5943 5946 5950 5953 5955 5958 5960 5962 5964 5964 5964 5964 5964 5965 5965 5966 5968 5970 5971 5972 5974 5975 5975 5975 5975 5975 5976 5976 5976 5975 5973 5970 5967 5966 5961 5958 5953 5947 5942 5939 5934 5928
5936 5939 5942 5945 5948 5950 5953 5955 5958 5960 5961 5961 5961 5961 5962 5962 5963 5963 5965 5967 5969 5970 5971 5972 5972 5972 5973 5973 5973 5972 5972 5970 5969 5964 5965 5960 5956 5950 5945 5941 5937 5931 5924
5930 5934 5938 5941 5943 5945 5947 5950 5952 5955 5956 5957 5956 5957 5958 5958 5959 5959 5961 5962 5964 5966 5967 5968 5968 5969 5969 5969 5969 5967 5967 5966 5964 5960 5959 5957 5953 5947 5942 5938 5932 5927 5920
5925 5928 5931 5935 5938 5940 5941 5943 5945 5947 5950 5952 5952 5952 5953 5954 5954 5954 5955 5957 5959 5961 5963 5964 5964 5965 5965 5965 5964 5963 5963 5962 5961 5957 5953 5953 5949 5944 5938 5933 5928 5923 5917
5917 5922 5924 5928 5932 5934 5936 5937 5939 5942 5944 5946 5947 5948 5949 5949 5949 5950 5952 5952 5954 5956 5957 5959 5960 5961 5961 5960 5959 5959 5957 5957 5957 5953 5948 5947 5943 5941 5935 5930 5925 5920 5914
5910 5912 5916 5920 5924 5927 5929 5931 5933 5936 5938 5941 5942 5943 5944 5944 5944 5945 5946 5947 5948 5950 5951 5954 5956 5957 5956 5955 5955 5954 5953 5950 5948 5947 5941 5941 5937 5935 5933 5927 5921 5915 5910